Time,TemperatureF,DewpointF,PressureIn,WindDirection,WindDirectionDegrees,WindSpeedMPH,WindSpeedGustMPH,Humidity,HourlyPrecipIn,Conditions,Clouds,dailyrainin,SoftwareType,DateUTC
2013-05-27 00:02:00,73.0,64.0,29.98,SE,128,1.0,7.0,74,0.00,,,0.00,,2013-05-27 05:02:00,
2013-05-27 00:12:00,73.0,64.0,29.98,SE,128,1.0,7.0,74,0.00,,,0.00,,2013-05-27 05:12:00,
2013-05-27 00:22:00,72.0,64.0,29.98,SE,131,1.0,6.0,75,0.00,,,0.00,,2013-05-27 05:22:00,
2013-05-27 00:32:00,72.0,64.0,29.98,SW,228,0.0,6.0,77,0.00,,,0.00,,2013-05-27 05:32:00,
2013-05-27 00:42:00,72.0,64.0,29.98,SW,228,0.0,6.0,77,0.00,,,0.00,,2013-05-27 05:42:00,
2013-05-27 00:52:00,71.0,64.0,29.97,SW,229,2.0,6.0,78,0.00,,,0.00,,2013-05-27 05:52:00,
2013-05-27 01:01:00,71.0,64.0,29.97,South,191,0.0,5.0,79,0.00,,,0.00,,2013-05-27 06:01:00,
2013-05-27 01:11:00,71.0,64.0,29.97,South,191,0.0,5.0,79,0.00,,,0.00,,2013-05-27 06:11:00,
2013-05-27 01:21:00,70.0,63.0,29.96,SSW,205,1.0,6.0,79,0.00,,,0.00,,2013-05-27 06:21:00,
2013-05-27 01:32:00,70.0,64.0,29.96,SW,225,0.0,5.0,80,0.00,,,0.00,,2013-05-27 06:32:00,
2013-05-27 01:42:00,70.0,64.0,29.96,SW,225,0.0,5.0,80,0.00,,,0.00,,2013-05-27 06:42:00,
2013-05-27 01:52:00,70.0,64.0,29.94,SE,131,1.0,8.0,81,0.00,,,0.00,,2013-05-27 06:52:00,
2013-05-27 02:02:00,70.0,64.0,29.93,SE,140,1.0,6.0,82,0.00,,,0.00,,2013-05-27 07:02:00,
2013-05-27 02:11:00,70.0,65.0,29.93,SSW,204,1.0,8.0,83,0.00,,,0.00,,2013-05-27 07:11:00,
2013-05-27 02:21:00,70.0,65.0,29.93,SSW,204,1.0,8.0,83,0.00,,,0.00,,2013-05-27 07:21:00,
2013-05-27 02:32:00,69.0,64.0,29.92,SSW,210,1.0,8.0,84,0.00,,,0.00,,2013-05-27 07:32:00,
2013-05-27 02:42:00,69.0,64.0,29.92,SSW,210,1.0,8.0,84,0.00,,,0.00,,2013-05-27 07:42:00,
2013-05-27 02:52:00,69.0,64.0,29.92,SW,217,1.0,4.0,85,0.00,,,0.00,,2013-05-27 07:52:00,
2013-05-27 03:02:00,69.0,65.0,29.91,South,184,0.0,8.0,86,0.00,,,0.00,,2013-05-27 08:02:00,
2013-05-27 03:11:00,69.0,65.0,29.91,South,184,0.0,8.0,86,0.00,,,0.00,,2013-05-27 08:11:00,
2013-05-27 03:22:00,69.0,65.0,29.92,SE,130,0.0,5.0,87,0.00,,,0.00,,2013-05-27 08:22:00,
2013-05-27 03:32:00,69.0,65.0,29.91,SSW,194,1.0,6.0,88,0.00,,,0.00,,2013-05-27 08:32:00,
2013-05-27 03:42:00,69.0,65.0,29.91,SSW,194,1.0,6.0,88,0.00,,,0.00,,2013-05-27 08:42:00,
2013-05-27 03:52:00,69.0,66.0,29.91,SSE,150,1.0,7.0,89,0.00,,,0.00,,2013-05-27 08:52:00,
2013-05-27 04:02:00,69.0,66.0,29.92,East,87,0.0,4.0,89,0.00,,,0.00,,2013-05-27 09:02:00,
2013-05-27 04:11:00,69.0,66.0,29.92,East,87,0.0,4.0,89,0.00,,,0.00,,2013-05-27 09:11:00,
2013-05-27 04:21:00,69.0,66.0,29.91,SSE,148,1.0,3.0,90,0.00,,,0.00,,2013-05-27 09:21:00,
2013-05-27 04:33:00,69.0,66.0,29.91,ESE,113,1.0,7.0,90,0.00,,,0.00,,2013-05-27 09:33:00,
2013-05-27 04:42:00,69.0,66.0,29.91,ESE,113,1.0,7.0,90,0.00,,,0.00,,2013-05-27 09:42:00,
2013-05-27 04:53:00,69.0,66.0,29.91,South,181,0.0,6.0,91,0.00,,,0.00,,2013-05-27 09:53:00,
2013-05-27 05:02:00,69.0,66.0,29.91,SE,135,1.0,5.0,91,0.00,,,0.00,,2013-05-27 10:02:00,
2013-05-27 05:12:00,69.0,66.0,29.91,SE,135,1.0,5.0,91,0.00,,,0.00,,2013-05-27 10:12:00,
2013-05-27 05:22:00,69.0,67.0,29.91,SSE,159,0.0,5.0,92,0.00,,,0.00,,2013-05-27 10:22:00,
2013-05-27 05:32:00,69.0,67.0,29.91,SSW,204,1.0,4.0,92,0.00,,,0.00,,2013-05-27 10:32:00,
2013-05-27 05:42:00,69.0,67.0,29.91,SSW,204,1.0,4.0,92,0.00,,,0.00,,2013-05-27 10:42:00,
2013-05-27 05:52:00,69.0,67.0,29.91,SSE,162,2.0,7.0,92,0.00,,,0.00,,2013-05-27 10:52:00,
2013-05-27 06:02:00,69.0,67.0,29.92,SSE,149,1.0,4.0,92,0.00,,,0.00,,2013-05-27 11:02:00,
2013-05-27 06:11:00,69.0,67.0,29.92,SSE,149,1.0,4.0,92,0.00,,,0.00,,2013-05-27 11:11:00,
2013-05-27 06:22:00,69.0,67.0,29.92,South,174,0.0,3.0,93,0.00,,,0.00,,2013-05-27 11:22:00,
2013-05-27 06:32:00,69.0,67.0,29.91,SSE,156,2.0,6.0,93,0.00,,,0.00,,2013-05-27 11:32:00,
2013-05-27 06:42:00,69.0,67.0,29.91,SSE,156,2.0,6.0,93,0.00,,,0.00,,2013-05-27 11:42:00,
2013-05-27 06:52:00,70.0,68.0,29.92,WNW,292,1.0,5.0,93,0.00,,,0.00,,2013-05-27 11:52:00,
2013-05-27 07:01:00,70.0,68.0,29.92,SSE,151,2.0,6.0,92,0.00,,,0.00,,2013-05-27 12:01:00,
2013-05-27 07:11:00,70.0,68.0,29.92,SSE,151,2.0,6.0,92,0.00,,,0.00,,2013-05-27 12:11:00,
2013-05-27 07:21:00,71.0,69.0,29.93,SW,215,1.0,6.0,92,0.00,,,0.00,,2013-05-27 12:21:00,
2013-05-27 07:32:00,71.0,68.0,29.93,ENE,68,2.0,8.0,91,0.00,,,0.00,,2013-05-27 12:32:00,
2013-05-27 07:42:00,71.0,68.0,29.93,ENE,68,2.0,8.0,91,0.00,,,0.00,,2013-05-27 12:42:00,
2013-05-27 07:52:00,72.0,69.0,29.93,SE,131,1.0,6.0,90,0.00,,,0.00,,2013-05-27 12:52:00,
2013-05-27 08:01:00,72.0,69.0,29.93,South,170,2.0,8.0,89,0.00,,,0.00,,2013-05-27 13:01:00,
2013-05-27 08:11:00,72.0,69.0,29.93,South,170,2.0,8.0,89,0.00,,,0.00,,2013-05-27 13:11:00,
2013-05-27 08:21:00,73.0,69.0,29.93,SSE,155,3.0,9.0,88,0.00,,,0.00,,2013-05-27 13:21:00,
2013-05-27 08:32:00,74.0,70.0,29.93,South,184,4.0,9.0,86,0.00,,,0.00,,2013-05-27 13:32:00,
2013-05-27 08:42:00,74.0,70.0,29.93,South,184,4.0,9.0,86,0.00,,,0.00,,2013-05-27 13:42:00,
2013-05-27 08:52:00,74.0,69.0,29.92,South,186,2.0,13.0,85,0.00,,,0.00,,2013-05-27 13:52:00,
2013-05-27 09:01:00,75.0,70.0,29.92,South,173,0.0,8.0,84,0.00,,,0.00,,2013-05-27 14:01:00,
2013-05-27 09:11:00,75.0,70.0,29.92,South,173,0.0,8.0,84,0.00,,,0.00,,2013-05-27 14:11:00,
2013-05-27 09:21:00,76.0,69.0,29.91,WSW,240,2.0,7.0,80,0.00,,,0.00,,2013-05-27 14:21:00,
2013-05-27 09:32:00,77.0,69.0,29.90,West,276,3.0,10.0,76,0.00,,,0.00,,2013-05-27 14:32:00,
2013-05-27 09:42:00,77.0,69.0,29.90,West,276,3.0,10.0,76,0.00,,,0.00,,2013-05-27 14:42:00,
2013-05-27 09:52:00,78.0,69.0,29.90,WSW,245,2.0,14.0,73,0.00,,,0.00,,2013-05-27 14:52:00,
2013-05-27 10:01:00,79.0,68.0,29.90,SW,215,3.0,16.0,70,0.00,,,0.00,,2013-05-27 15:01:00,
2013-05-27 10:11:00,79.0,68.0,29.90,SW,222,2.0,8.0,70,0.00,,,0.00,,2013-05-27 15:11:00,
2013-05-27 10:21:00,79.0,68.0,29.90,SW,222,2.0,8.0,70,0.00,,,0.00,,2013-05-27 15:21:00,
2013-05-27 10:33:00,80.0,69.0,29.90,WSW,243,1.0,9.0,69,0.00,,,0.00,,2013-05-27 15:33:00,
2013-05-27 10:43:00,80.0,69.0,29.90,WSW,243,1.0,9.0,69,0.00,,,0.00,,2013-05-27 15:43:00,
2013-05-27 10:53:00,81.0,69.0,29.90,SSW,210,3.0,10.0,67,0.00,,,0.00,,2013-05-27 15:53:00,
2013-05-27 11:03:00,81.0,68.0,29.89,East,82,2.0,12.0,65,0.00,,,0.00,,2013-05-27 16:03:00,
2013-05-27 11:12:00,81.0,68.0,29.89,East,82,2.0,12.0,65,0.00,,,0.00,,2013-05-27 16:12:00,
2013-05-27 11:23:00,82.0,69.0,29.89,SE,139,2.0,15.0,66,0.00,,,0.00,,2013-05-27 16:23:00,
2013-05-27 11:33:00,82.0,69.0,29.89,WSW,245,2.0,15.0,64,0.00,,,0.00,,2013-05-27 16:33:00,
2013-05-27 11:42:00,82.0,69.0,29.89,WSW,245,2.0,15.0,64,0.00,,,0.00,,2013-05-27 16:42:00,
2013-05-27 11:52:00,83.0,70.0,29.89,SSW,205,3.0,11.0,64,0.00,,,0.00,,2013-05-27 16:52:00,
2013-05-27 12:02:00,83.0,70.0,29.89,SW,215,2.0,17.0,66,0.00,,,0.00,,2013-05-27 17:02:00,
2013-05-27 12:11:00,83.0,70.0,29.89,SW,215,2.0,17.0,66,0.00,,,0.00,,2013-05-27 17:11:00,
2013-05-27 12:22:00,84.0,70.0,29.89,West,262,3.0,13.0,64,0.00,,,0.00,,2013-05-27 17:22:00,
2013-05-27 12:32:00,83.0,70.0,29.88,SE,136,3.0,14.0,65,0.00,,,0.00,,2013-05-27 17:32:00,
2013-05-27 12:43:00,83.0,70.0,29.88,SE,136,3.0,14.0,65,0.00,,,0.00,,2013-05-27 17:43:00,
2013-05-27 12:52:00,84.0,70.0,29.88,WSW,250,3.0,15.0,64,0.00,,,0.00,,2013-05-27 17:52:00,
2013-05-27 13:02:00,84.0,70.0,29.88,SSE,167,5.0,13.0,64,0.00,,,0.00,,2013-05-27 18:02:00,
2013-05-27 13:11:00,84.0,70.0,29.88,SSE,167,5.0,13.0,64,0.00,,,0.00,,2013-05-27 18:11:00,
2013-05-27 13:22:00,84.0,70.0,29.87,SSW,197,7.0,16.0,63,0.00,,,0.00,,2013-05-27 18:22:00,
2013-05-27 13:32:00,83.0,70.0,29.88,SSW,200,3.0,16.0,65,0.00,,,0.00,,2013-05-27 18:32:00,
2013-05-27 13:42:00,83.0,70.0,29.88,SSW,200,3.0,16.0,65,0.00,,,0.00,,2013-05-27 18:42:00,
2013-05-27 13:52:00,83.0,70.0,29.87,ENE,78,3.0,10.0,66,0.00,,,0.00,,2013-05-27 18:52:00,
2013-05-27 14:01:00,84.0,70.0,29.87,WNW,288,3.0,13.0,64,0.00,,,0.00,,2013-05-27 19:01:00,
2013-05-27 14:11:00,84.0,70.0,29.87,WNW,288,3.0,13.0,64,0.00,,,0.00,,2013-05-27 19:11:00,
2013-05-27 14:21:00,83.0,70.0,29.86,SSE,156,5.0,13.0,65,0.00,,,0.00,,2013-05-27 19:21:00,
2013-05-27 14:32:00,83.0,70.0,29.85,SW,217,3.0,15.0,65,0.00,,,0.00,,2013-05-27 19:32:00,
2013-05-27 14:42:00,83.0,70.0,29.85,SW,217,3.0,15.0,65,0.00,,,0.00,,2013-05-27 19:42:00,
2013-05-27 14:52:00,82.0,71.0,29.85,West,271,2.0,16.0,69,0.00,,,0.00,,2013-05-27 19:52:00,
2013-05-27 15:01:00,81.0,69.0,29.85,South,178,3.0,16.0,67,0.00,,,0.00,,2013-05-27 20:01:00,
2013-05-27 15:11:00,81.0,69.0,29.85,South,178,3.0,16.0,67,0.00,,,0.00,,2013-05-27 20:11:00,
2013-05-27 15:22:00,82.0,70.0,29.85,WSW,248,3.0,12.0,68,0.00,,,0.00,,2013-05-27 20:22:00,
2013-05-27 15:32:00,81.0,69.0,29.85,SW,215,2.0,16.0,67,0.00,,,0.00,,2013-05-27 20:32:00,
2013-05-27 15:42:00,83.0,70.0,29.83,South,176,2.0,16.0,65,0.00,,,0.00,,2013-05-27 20:42:00,
2013-05-27 15:52:00,83.0,70.0,29.83,South,176,2.0,16.0,65,0.00,,,0.00,,2013-05-27 20:52:00,
2013-05-27 16:01:00,83.0,69.0,29.83,SSW,205,4.0,13.0,63,0.00,,,0.00,,2013-05-27 21:01:00,
2013-05-27 16:12:00,83.0,70.0,29.83,SE,131,3.0,13.0,64,0.00,,,0.00,,2013-05-27 21:12:00,
2013-05-27 16:21:00,83.0,70.0,29.83,SE,131,3.0,13.0,64,0.00,,,0.00,,2013-05-27 21:21:00,
2013-05-27 16:33:00,83.0,69.0,29.82,ESE,115,5.0,18.0,62,0.00,,,0.00,,2013-05-27 21:33:00,
2013-05-27 16:43:00,83.0,70.0,29.82,SE,141,5.0,18.0,64,0.00,,,0.00,,2013-05-27 21:43:00,
2013-05-27 16:53:00,83.0,70.0,29.82,SE,141,5.0,18.0,64,0.00,,,0.00,,2013-05-27 21:53:00,
2013-05-27 17:02:00,82.0,68.0,29.81,North,354,5.0,14.0,63,0.00,,,0.00,,2013-05-27 22:02:00,
2013-05-27 17:12:00,82.0,68.0,29.81,North,354,5.0,14.0,63,0.00,,,0.00,,2013-05-27 22:12:00,
2013-05-27 17:22:00,82.0,69.0,29.81,SE,141,6.0,13.0,64,0.00,,,0.00,,2013-05-27 22:22:00,
2013-05-27 17:32:00,82.0,69.0,29.80,SSE,165,3.0,15.0,65,0.00,,,0.00,,2013-05-27 22:32:00,
2013-05-27 17:42:00,82.0,69.0,29.80,SSE,165,3.0,15.0,65,0.00,,,0.00,,2013-05-27 22:42:00,
2013-05-27 17:53:00,82.0,69.0,29.81,SE,145,4.0,13.0,66,0.00,,,0.00,,2013-05-27 22:53:00,
2013-05-27 18:02:00,81.0,69.0,29.80,NW,324,3.0,11.0,66,0.00,,,0.00,,2013-05-27 23:02:00,
2013-05-27 18:12:00,81.0,69.0,29.80,NW,324,3.0,11.0,66,0.00,,,0.00,,2013-05-27 23:12:00,
2013-05-27 18:22:00,81.0,69.0,29.79,South,190,3.0,14.0,66,0.00,,,0.00,,2013-05-27 23:22:00,
2013-05-27 18:32:00,81.0,69.0,29.78,SE,145,5.0,18.0,67,0.00,,,0.00,,2013-05-27 23:32:00,
2013-05-27 18:42:00,81.0,69.0,29.78,SE,145,5.0,18.0,67,0.00,,,0.00,,2013-05-27 23:42:00,
2013-05-27 18:52:00,81.0,69.0,29.78,South,190,5.0,12.0,68,0.00,,,0.00,,2013-05-27 23:52:00,
2013-05-27 19:01:00,80.0,69.0,29.78,WSW,239,3.0,12.0,69,0.00,,,0.00,,2013-05-28 00:01:00,
2013-05-27 19:11:00,80.0,69.0,29.78,WSW,239,3.0,12.0,69,0.00,,,0.00,,2013-05-28 00:11:00,
2013-05-27 19:21:00,80.0,69.0,29.78,South,176,3.0,9.0,69,0.00,,,0.00,,2013-05-28 00:21:00,
2013-05-27 19:31:00,80.0,69.0,29.77,WSW,240,6.0,14.0,69,0.00,,,0.00,,2013-05-28 00:31:00,
2013-05-27 19:41:00,80.0,69.0,29.77,WSW,240,6.0,14.0,69,0.00,,,0.00,,2013-05-28 00:41:00,
2013-05-27 19:52:00,80.0,69.0,29.77,East,89,3.0,12.0,70,0.00,,,0.00,,2013-05-28 00:52:00,
2013-05-27 20:01:00,80.0,69.0,29.77,East,89,3.0,12.0,70,0.00,,,0.00,,2013-05-28 01:01:00,
2013-05-27 20:11:00,80.0,69.0,29.77,East,89,3.0,12.0,70,0.00,,,0.00,,2013-05-28 01:11:00,
2013-05-27 20:21:00,79.0,68.0,29.78,SSW,213,5.0,11.0,70,0.00,,,0.00,,2013-05-28 01:21:00,
2013-05-27 20:31:00,79.0,68.0,29.80,SSE,149,2.0,13.0,70,0.00,,,0.00,,2013-05-28 01:31:00,
2013-05-27 20:42:00,79.0,68.0,29.80,SSE,149,2.0,13.0,70,0.00,,,0.00,,2013-05-28 01:42:00,
2013-05-27 20:52:00,79.0,68.0,29.80,South,183,4.0,13.0,70,0.00,,,0.00,,2013-05-28 01:52:00,
2013-05-27 21:02:00,79.0,68.0,29.80,SE,139,1.0,13.0,70,0.00,,,0.00,,2013-05-28 02:02:00,
2013-05-27 21:11:00,79.0,68.0,29.80,SE,139,1.0,13.0,70,0.00,,,0.00,,2013-05-28 02:11:00,
2013-05-27 21:21:00,79.0,68.0,29.80,SE,139,1.0,13.0,70,0.00,,,0.00,,2013-05-28 02:21:00,
2013-05-27 21:32:00,78.0,68.0,29.79,SSE,154,2.0,10.0,71,0.00,,,0.00,,2013-05-28 02:32:00,
2013-05-27 21:42:00,78.0,68.0,29.79,SSE,154,2.0,10.0,71,0.00,,,0.00,,2013-05-28 02:42:00,
2013-05-27 21:51:00,78.0,68.0,29.79,SE,139,4.0,12.0,72,0.00,,,0.00,,2013-05-28 02:51:00,
2013-05-27 22:01:00,78.0,68.0,29.79,South,172,1.0,16.0,72,0.00,,,0.00,,2013-05-28 03:01:00,
2013-05-27 22:11:00,78.0,68.0,29.79,South,172,1.0,16.0,72,0.00,,,0.00,,2013-05-28 03:11:00,
2013-05-27 22:21:00,78.0,69.0,29.79,SW,219,3.0,10.0,73,0.00,,,0.00,,2013-05-28 03:21:00,
2013-05-27 22:33:00,77.0,68.0,29.79,ESE,102,3.0,9.0,73,0.00,,,0.00,,2013-05-28 03:33:00,
2013-05-27 22:43:00,77.0,68.0,29.79,ESE,102,3.0,9.0,73,0.00,,,0.00,,2013-05-28 03:43:00,
2013-05-27 22:53:00,77.0,68.0,29.79,SSW,194,5.0,14.0,73,0.00,,,0.00,,2013-05-28 03:53:00,
2013-05-27 23:02:00,77.0,68.0,29.79,South,184,1.0,8.0,74,0.00,,,0.00,,2013-05-28 04:02:00,
2013-05-27 23:13:00,77.0,68.0,29.79,South,184,1.0,8.0,74,0.00,,,0.00,,2013-05-28 04:13:00,
2013-05-27 23:22:00,77.0,68.0,29.79,West,270,4.0,12.0,74,0.00,,,0.00,,2013-05-28 04:22:00,
2013-05-27 23:33:00,77.0,68.0,29.79,West,270,4.0,12.0,74,0.00,,,0.00,,2013-05-28 04:33:00,
2013-05-27 23:43:00,77.0,68.0,29.79,West,270,4.0,12.0,74,0.00,,,0.00,,2013-05-28 04:43:00,
2013-05-27 23:52:00,76.0,67.0,29.78,ESE,117,4.0,9.0,75,0.00,,,0.00,,2013-05-28 04:52:00,